Shijiazhuang Zhengding International

Airport
ICAO code: 
ZBSJ
Summary
ICAO Region: 
APAC
Territory: 
Location: 
Shijiazhuang, Hebei, Hebei
Serving: 
Shijiazhuang
Coordinates: 
Aerial View: 
38° 16' 50.999" N, 114° 41' 48.001" E
Airport WX: 
Sand Storm
Metar
Observation
ZBSJ 241600Z 17001MPS 4000 BR OVC026 M01/M03 Q1024 NOSIG
Station
ZHENGDING
Date/Time
2022-01-24 16:00:00
Wind direction
170°
Lowest cloud amount
overcast
Temperature
-1°C
Dew point
-3°C
Humidity
86%
QNH
1024 hPa
Weather condition
n/a

Description

Shijiazhuang Zhengding International Airport is an airport serving Shijiazhuang, the capital of Hebei Province, China.

Climatology

WiHumid subtropical climate (Köppen climate classification Cfa.) Hot muggy summers with frequent thunderstorms. Winters are mild and precipitation during this season comes from mid-latitude cyclones. This climate type is quite common on the east coasts of continents.

Runways

Designator Length Width Surface Rops
15/33 3400 45 CON Yes/Yes
Airport map: 
Aerial View: 

SKYbrary Partners:

Safety knowledge contributed by: